User: anonymous   Login
Location: Newark
(44.3248°N, 23.7839°E)
Time: 23:22:29
(UTC+00:00)
Language:

ITAMSAT 1 - Orbit

View from above orbital plane
View from above orbital plane
View from above satellite
View from above satellite

Ground track
Ground track

The orbit data is extracted from the following two-line orbital elements,

1 22826U 93061D   24114.83296634  .00000481  00000-0  20069-3 0  9995
2 22826  98.7884 166.8909 0008298 217.0202 143.0408 14.30843957595379
Epoch (UTC): 23 April 2024 19:59:28
Eccentricity: 0.0008298
inclination: 98.7884°
perigee height: 783 km
apogee height: 795 km
right ascension of ascending node: 166.8909°
argument of perigee: 217.0202°
revolutions per day: 14.30843957
mean anomaly at epoch: 143.0408°
orbit number at epoch: 59537

The dashed part of the orbit path shows where the satellite is in the earth's shadow,  

DLR